TIME,DELAY(SENSOR),PRES,T(CTD),SAL,OXYGEN,RAWTEMP,T(OPTODE),TCPHASE,FLUOR,BETA(BETA700),BETA(BETA412),BETA(BETA440),CDOM,C(CSC),ED(ED412.40),ED(ED444.00),ED(ED489.70),ED(ED554.30),LU(LU411.80),LU(LU443.40),LU(LU489.60),LU(LU554.10),COMP,TILTX,TILTX(TILTY),CHECK
1382477480,5810,497.4899902343750000,6.8333997726440430,34.1259994506835940,80.1165771484375000,592.8618774414062000,6.8146109580993650,48.7908706665039060,51,104,87,80,76,15238,2147747291,2147422308,2148005229,2147871917,2147630390,2147079643,2148247936,2147199085,64,4,12,5685
1382477626,5808,486.2999877929687500,6.9861001968383790,34.1150016784668000,88.9802474975586000,588.3164062500000000,6.9610438346862790,47.7077217102050800,51,103,88,79,77,15238,2147751652,2147421339,2148004041,2147873517,2147628973,2147073536,2148242368,2147198034,2553,4,13,34065
1382477769,5809,475.5100097656250000,7.2065000534057620,34.1030006408691400,97.6207275390625000,581.6328125000000000,7.1760101318359375,46.6596488952636700,51,104,82,79,76,15240,2147744365,2147422528,2148004315,2147872182,2147628918,2147076388,2148244973,2147200365,2296,4,13,30383
1382477943,5752,460.8099975585937500,7.3619999885559080,34.0983009338378900,109.3152999877929700,576.0955810546875000,7.3537979125976560,45.3594398498535160,50,102,84,80,75,15239,2147746532,2147424822,2148001225,2147872530,2147621504,2147077110,2148242148,2147200301,1512,4,13,24589
1382478045,5808,450.1400146484375000,7.6233000755310060,34.1040992736816400,112.1174011230468800,568.1052856445312000,7.6098709106445310,44.9487495422363300,50,103,85,80,75,15238,2147743460,2147426038,2148004672,2147872621,2147622692,2147082258,2148242386,2147200228,726,3,12,45378
1382478155,5806,438.5599975585937500,7.8161997795104980,34.1040000915527340,118.7535018920898400,562.1727294921875000,7.7996368408203125,44.2042312622070300,51,102,84,80,76,15238,2147743945,2147421476,2148002998,2147875108,2147622912,2147079524,2148239478,2147203602,3012,3,13,3963
1382478284,5809,426.5000000000000000,8.0009002685546880,34.0998001098632800,126.9720993041992200,556.6312255859375000,7.9766178131103520,43.3412590026855500,50,104,84,79,74,15239,2147743908,2147424265,2148008420,2147874541,2147622793,2147083812,2148233435,2147198308,2327,3,13,33137
1382478431,5807,415.9200134277344000,8.1590003967285160,34.0979003906250000,133.4362945556640600,551.0878906250000000,8.1534032821655270,42.6639289855957000,50,103,89,80,74,15239,2147744192,2147422098,2148002496,2147872813,2147621056,2147091227,2148234916,2147202486,1690,3,13,57589
1382478594,5811,404.4400024414062500,8.5411996841430660,34.0999984741210940,142.9779968261718800,539.5147705078125000,8.5216665267944340,41.6403694152832000,50,104,89,80,73,15236,2147738514,2147421595,2148005156,2147873883,2147620580,2147086317,2148230784,2147200941,301,4,13,44318
1382478734,5807,393.1900024414062500,8.8856000900268550,34.1057014465332000,151.6967010498047000,529.8231811523438000,8.8292369842529300,40.7536888122558600,50,105,86,80,73,15235,2147739849,2147422171,2148003428,2147872237,2147619437,2147086144,2148231286,2147200886,221,3,13,49654
1382478897,5809,379.8500061035156000,9.3884000778198240,34.1120986938476560,163.3549041748047000,512.8796997070312000,9.3652257919311520,39.5519714355468750,50,107,88,79,72,15231,2147736429,2147423716,2148005321,2147872969,2147617152,2147091812,2148228434,2147201819,3051,3,13,10035
1382479010,5807,369.0599975585937500,9.8374996185302730,34.1212005615234400,170.0997009277343800,498.5275878906250000,9.8175935745239260,38.8055610656738300,50,106,83,81,70,15234,2147738486,2147423524,2148005632,2147875904,2147616137,2147094802,2148228964,2147202240,2096,3,13,29392
1382479120,5809,358.3200073242187500,10.1584997177124020,34.1277999877929700,174.5355987548828000,488.1481933593750000,10.1438503265380860,38.3108596801757800,48,106,87,79,71,15233,2147735213,2147423835,2148005156,2147873846,2147609920,2147099437,2148225161,2147204379,1954,3,13,55333
1382479232,5809,347.2799987792969000,10.5066003799438480,34.1347007751464840,180.0453948974609400,477.3179931640625000,10.4835195541381840,37.7426795959472660,50,104,84,79,72,15231,2147733878,2147424896,2148005147,2147870436,2147609051,2147102921,2148226697,2147207716,1499,3,13,18983
1382479353,5808,335.6300048828125000,10.6877002716064450,34.1399993896484400,183.1871948242187500,471.0162963867187500,10.6808204650878900,37.4228515625000000,49,104,86,80,70,15231,2147731410,2147424512,2148005860,2147871945,2147608283,2147105179,2148224155,2147203849,1323,3,13,28290
1382479463,5808,325.3699951171875000,10.9958000183105470,34.1447982788085940,185.1224975585937500,460.9917907714844000,10.9941501617431640,37.1268882751464840,49,104,87,79,69,15231,2147730432,2147425106,2148006866,2147873289,2147606875,2147108690,2148222930,2147205961,996,3,13,44925
1382479586,5810,314.9599914550781000,11.3545999526977540,34.1608009338378900,191.2355041503906200,449.5357971191406000,11.3515100479125980,36.5369911193847660,49,102,90,79,68,15231,2147729554,2147423360,2148006564,2147875446,2147606043,2147110308,2148224448,2147204964,3135,3,13,42326
1382479729,5810,303.6499938964844000,11.8689002990722660,34.1799011230468750,196.4996948242187500,433.1163024902344000,11.8624095916748050,35.9358482360839840,49,102,86,79,68,15231,2147728393,2147425252,2148010715,2147877101,2147600329,2147109275,2148218779,2147205988,1585,3,14,22124
1382479875,5811,292.5100097656250000,12.6021003723144530,34.2165985107421900,201.1638031005859400,411.1481018066406000,12.5437698364257810,35.2985496520996100,49,105,87,80,68,15229,2147726829,2147428461,2148016557,2147873764,2147599762,2147120786,2148218368,2147205238,1639,3,13,32008
1382480029,5812,281.6199951171875000,13.4104003906250000,34.2804985046386700,207.6605072021484400,382.1441955566406000,13.4399299621582030,34.4599609375000000,49,102,86,78,69,15227,2147725458,2147428937,2148020717,2147875666,2147593133,2147125193,2148220214,2147206793,3441,3,14,46869
1382480203,5806,269.2799987792969000,14.3091001510620120,34.3591003417968750,210.9521942138672000,353.6701965332031000,14.3165102005004880,33.8376502990722660,49,104,84,80,66,15225,2147723931,2147438400,2148042285,2147875346,2147591030,2147133110,2148220946,2147210057,1823,3,13,58790
1382480336,5808,258.0199890136719000,14.9486999511718750,34.4311981201171900,214.2537994384765600,333.5520935058594000,14.9342498779296880,33.3521690368652340,48,103,86,80,65,15226,2147722779,2147440630,2148050221,2147872283,2147586944,2147146157,2148219117,2147205147,2523,3,13,15672
1382480460,5809,247.9299926757812500,15.3636999130249020,34.4807014465332000,214.8995056152343800,318.1466064453125000,15.4065399169921880,33.0895996093750000,49,107,86,78,65,15224,2147713060,2147448219,2148069229,2147874377,2147585316,2147148681,2148231040,2147210386,487,2,14,65456
1382480592,5807,237.7299957275390600,16.0510005950927730,34.5542984008789060,215.9866943359375000,297.2979125976562500,16.0448703765869140,32.7275199890136700,49,104,84,79,64,15222,2147716086,2147454976,2148082230,2147873819,2147582363,2147154898,2148237997,2147216749,3264,2,13,65192
1382480768,5807,223.7299957275390600,16.5184993743896500,34.6138000488281250,215.4279937744140600,281.6019897460937500,16.5249195098876950,32.5325889587402340,49,104,87,79,66,15220,2147716288,2147472036,2148119232,2147874294,2147580233,2147172571,2148248064,2147215021,2550,2,14,34861
1382480887,5811,212.2400054931640600,17.2091999053955080,34.7038002014160160,213.5673065185547000,253.9423065185547000,17.3701305389404300,32.2423210144043000,50,106,84,80,65,15216,2147721316,2147500900,2148181293,2147874020,2147580918,2147193417,2148271716,2147215195,2160,1,15,38001
1382481008,5806,200.7200012207031200,17.8824996948242200,34.7980003356933600,215.2209930419922000,236.7756042480468800,17.8944206237792970,31.9123802185058600,50,104,87,79,62,15217,2147726957,2147534710,2148239378,2147874432,2147580251,2147223899,2148300242,2147218258,660,2,15,48473
1382481088,5810,193.6300048828125000,18.4029006958007800,34.8678016662597660,215.5375976562500000,219.9250946044922000,18.4090099334716800,31.6623096466064450,51,106,88,79,63,15214,2147731995,2147555821,2148264630,2147872649,2147577216,2147233938,2148308854,2147219035,326,3,14,37101
1382481143,5806,189.6499938964843800,18.6727008819580080,34.9053001403808600,216.0137939453125000,212.5615997314453000,18.6338901519775400,31.5355091094970700,52,106,87,80,63,15212,2147736310,2147578459,2148308489,2147873929,2147580681,2147244992,2148328585,2147219017,1069,3,14,43505
1382481198,5807,185.9900054931640600,18.9754009246826170,34.9422988891601560,216.1582031250000000,200.9967041015625000,18.9871292114257800,31.3699493408203120,55,109,85,81,63,15205,2147747483,2147609042,2148376045,2147876900,2147580772,2147273206,2148363712,2147221878,1087,2,14,36322
1382481264,5809,181.7200012207031200,19.2581996917724600,34.9650001525878900,214.6719970703125000,191.0785064697265600,19.2901592254638670,31.3141307830810550,59,112,91,80,62,15199,2147783204,2147755401,2148665334,2147873892,2147594011,2147362166,2148507574,2147234934,513,2,15,32973
1382481319,5806,178.1900024414062500,19.6007003784179700,35.0046997070312500,214.0341033935547000,181.5650024414062500,19.5809097290039060,31.2192802429199220,64,111,87,81,62,15197,2147797312,2147794633,2148748525,2147875876,2147598939,2147374857,2148538752,2147239552,21,2,14,38153
1382481404,5809,173.3500061035156200,19.8908996582031250,35.0135993957519500,211.4985961914062500,171.6950988769531200,19.8826694488525400,31.2223796844482420,66,110,87,81,62,15192,2147828050,2147879890,2148887104,2147876233,2147611702,2147419419,2148592822,2147243538,2671,2,15,29125
1382481481,5811,169.2700042724609400,20.0823993682861330,35.0355987548828100,210.5233001708984400,164.9414062500000000,20.0892391204834000,31.1840991973876950,70,112,87,79,62,15195,2147916809,2148163364,2149450953,2147880256,2147641673,2147582080,2148846774,2147261952,2777,2,15,47411
1382481547,5807,165.5000000000000000,20.2798004150390620,35.0801010131835940,213.8424987792968800,158.9255065917968800,20.2733001708984380,30.9251899719238280,72,112,88,80,62,15188,2147923309,2148169526,2149455232,2147878729,2147646665,2147587282,2148865929,2147265773,2647,2,14,28090
1382481624,5806,160.8099975585937500,20.4958000183105470,35.1166000366210940,218.5258941650390600,152.2429962158203000,20.4778404235839840,30.5902595520019530,79,112,86,81,62,15182,2147997467,2148351259,2149752100,2147881947,2147677056,2147685714,2148978240,2147270098,1918,2,15,31597
1382481681,5806,157.3800048828125000,20.5478000640869140,35.1248016357421900,220.9472961425781200,150.1811065673828000,20.5409698486328120,30.4385108947753900,80,114,88,82,61,15177,2148016731,2148363501,2149718345,2147879012,2147686061,2147703442,2148991606,2147273051,1342,2,15,60014
1382481747,5807,153.4100036621093800,20.6070003509521500,35.1321983337402340,222.6726989746093800,147.8751983642578000,20.6115798950195300,30.3206100463867200,80,116,87,80,61,15178,2148046144,2148379867,2149718720,2147881188,2147698477,2147713124,2148969956,2147276489,804,2,15,17546
1382481824,5808,149.0899963378906200,20.7096004486084000,35.1418991088867200,224.0769958496093800,145.1119995117187500,20.6962108612060550,30.2133693695068360,81,118,87,81,62,15172,2148383305,2149218450,2151218834,2147889856,2147828443,2148140882,2149608969,2147319689,572,2,15,21729
1382481901,5808,145.4199981689453000,20.8320999145507800,35.1528015136718750,224.7911987304687500,141.6940002441406200,20.8009109497070300,30.1329803466796880,82,119,88,81,61,15166,2148567872,2149585289,2151771108,2147894546,2147902985,2148317513,2149837266,2147339629,1292,2,15,59059
1382481992,5811,142.0800018310547000,21.0988006591796880,35.1801986694335940,225.5684051513672000,132.5155029296875000,21.0822105407714840,29.9740390777587900,90,117,91,82,60,15164,2148753197,2149884114,2152189101,2147899200,2147973266,2148473124,2150036013,2147355209,2392,1,15,23085
1382482157,5808,138.2799987792968800,21.5051994323730470,35.2042999267578100,228.4293975830078000,119.2698974609375000,21.4885292053222660,29.6614398956298830,96,119,88,80,60,15152,2148208996,2148461860,2149571995,2147883318,2147758217,2147717056,2148857206,2147270619,1504,1,15,27010
1382482348,5810,133.6600036621093800,21.7169990539550780,35.2002983093261700,220.7097015380859400,112.1462020874023400,21.7072601318359380,29.9519691467285160,107,119,87,82,61,15140,2149218404,2150475401,2152881508,2147909184,2148127981,2148681563,2150240704,2147375332,3005,2,16,32693
1382482436,5811,129.6799926757812500,21.7404003143310550,35.2033004760742200,220.6743011474609400,111.1017990112304700,21.7393398284912100,29.9401206970214840,109,120,90,82,62,15142,2149678336,2151181668,2153826294,2147921618,2148294921,2148995099,2150597897,2147407259,2487,2,15,37404
1382482524,5807,125.4700012207031200,21.9412002563476560,35.2252006530761700,221.2581939697265600,104.9558029174804700,21.9281902313232420,29.8308906555175780,111,123,87,81,61,15130,2150045586,2151657874,2154399131,2147933056,2148429440,2149183844,2150784228,2147429229,2178,1,15,52989
1382482615,5808,121.5500030517578100,22.1653003692626950,35.2490997314453100,222.7794952392578000,97.9269332885742200,22.1443195343017580,29.6637191772460940,123,121,88,82,60,15127,2151447616,2153970020,2157765202,2147972598,2148954971,2150235072,2152122377,2147544941,1196,2,15,40212
1382482714,5808,117.9300003051757800,22.3575992584228500,35.2599983215332000,224.4841003417968800,92.8320312500000000,22.3010807037353500,29.5138206481933600,127,120,88,82,61,15120,2151725339,2154145837,2157735561,2147979657,2149047442,2150255314,2152063469,2147544804,1086,2,15,58578
1382482857,5809,114.4599990844726600,22.5666999816894530,35.2817001342773440,227.3260955810547000,84.7767562866211000,22.5491294860839840,29.2717990875244140,142,119,89,82,61,15110,2152256146,2154814820,2158516452,2148003401,2149221421,2150464566,2152299858,2147567597,2379,1,15,58450
1382483030,5807,110.0800018310546900,22.8929004669189450,35.2803001403808600,230.8583984375000000,74.0753631591796900,22.8790206909179700,28.9662704467773440,143,120,89,83,60,15104,2153539053,2156452004,2160200018,2148040265,2149669339,2151030116,2152870537,2147632228,1733,1,15,22517
1382483162,5808,106.0100021362304700,22.9188995361328120,35.2616996765136700,230.8249969482422000,72.9544906616211000,22.9136009216308600,28.9535198211669920,146,121,92,83,61,15101,2153596900,2156041654,2159053430,2148028242,2149688310,2150837824,2152481197,2147605403,772,1,15,28167
1382483269,5811,101.3300018310546900,23.0519008636474600,35.2503013610839840,229.9519958496093800,68.8617630004882800,23.0399093627929700,28.9430103302001950,122,120,90,84,62,15103,2160580598,2165854116,2171280886,2148270390,2152156315,2154833307,2157213421,2148042130,17,2,15,47112
1382483324,5809,98.4300003051757800,23.1434993743896500,35.2407989501953100,230.0415039062500000,66.0567779541015600,23.1265106201171880,28.9032897949218750,109,121,88,83,60,15103,2162730304,2168306669,2173625453,2148345225,2152958363,2155901248,2158228324,2148156864,125,2,15,37929
1382483379,5807,95.7500000000000000,23.3794002532959000,35.2817993164062500,231.3103027343750000,58.1959495544433600,23.3694000244140620,28.7440299987792970,98,119,88,84,59,15112,2160819264,2164708992,2168064027,2148272960,2152393618,2154535497,2156157074,2147975222,362,2,15,50652
1382483434,5808,93.3300018310546900,23.6298999786376950,35.3269004821777340,236.1004943847656200,50.9766387939453100,23.5926990509033200,28.4307403564453120,89,122,91,82,58,15102,2167493531,2173587337,2178465298,2148532845,2155141284,2158676269,2160704292,2148406043,590,1,15,57611
1382483489,5805,91.2200012207031200,23.7248001098632800,35.3289985656738300,238.2646942138672000,47.4476318359375000,23.7019405364990230,28.2880401611328120,87,122,90,85,56,15108,2170011337,2176524324,2181305673,2148639469,2156454546,2160339355,2162131382,2148550134,872,1,15,6425
1382483546,5809,89.4000015258789000,23.7723007202148440,35.3134994506835940,239.7115020751953000,45.6129608154296900,23.7587604522705080,28.1997509002685550,86,120,88,85,57,15109,2172759341,2179483666,2183982939,2148767652,2157898285,2162092909,2163556644,2148702208,998,1,16,61904
1382483601,5806,87.8799972534179700,23.8230991363525400,35.3135986328125000,239.7801971435547000,43.9068183898925800,23.8116092681884770,28.1753807067871100,85,123,89,83,58,15108,2175264566,2182061485,2186235190,2148851785,2159108809,2163484443,2164593344,2148808182,928,1,16,40073
1382483667,5807,86.4599990844726600,23.8976993560791000,35.3289985656738300,240.1835021972656200,41.3151588439941400,23.8919200897216800,28.1250095367431640,84,121,90,84,59,15112,2177629696,2184222939,2187969974,2148938962,2160425910,2165100260,2166008338,2148942555,302,1,16,47803
1382483777,5807,84.8399963378906200,24.1651992797851560,35.3185005187988300,241.9550018310547000,33.5322303771972660,24.1332893371582030,27.9496097564697270,78,123,92,83,57,15109,2180190016,2186625197,2189838637,2149055030,2161909229,2166693897,2167098587,2149059245,3524,1,16,34186
1382483973,5807,82.5800018310546900,24.3719997406005860,35.3325004577636700,243.5677032470703000,27.1655902862548830,24.3309593200683600,27.7998695373535160,73,123,89,84,55,15099,2187921856,2193677696,2195056109,2149267986,2166701339,2171814235,2170471744,2149378422,3440,1,15,23305
1382484127,5809,80.7200012207031200,24.8773994445800780,35.3470993041992200,246.4754943847656200,10.3221797943115230,24.8549404144287100,27.4664802551269530,73,122,88,84,58,15097,2195207067,2200610715,2200259574,2149498340,2171957138,2177291657,2174001709,2149722112,1049,0,16,5704
1382484245,5807,77.6299972534179700,25.1982994079589840,35.3736000061035160,248.0662994384765600,-0.2435088008642197,25.1844406127929700,27.2691993713378900,70,121,92,84,58,15099,2203571840,2208746816,2207474596,2149937782,2177703899,2183339081,2178382016,2150171446,1029,1,16,42135
1382484300,5812,75.3700027465820300,25.2805995941162100,35.3795013427734400,248.6284027099609400,-2.9453160762786865,25.2688007354736330,27.2122993469238280,72,123,92,86,56,15086,2208918674,2213927387,2212252443,2150360356,2181307556,2187040018,2181007497,2150469275,885,1,16,20322
1382484355,5805,73.2600021362304700,25.4354991912841800,35.3884010314941400,248.6737060546875000,-7.0545759201049805,25.3971996307373050,27.1604499816894530,72,122,92,85,57,15080,2213075346,2217522971,2215339318,2150674496,2184780461,2190498240,2183399652,2150725193,559,1,16,51822
1382484410,5809,71.6600036621093800,25.5172996520996100,35.3941993713378900,248.6410980224609400,-8.9889755249023440,25.4576702117919920,27.1382904052734380,70,122,91,85,56,15088,2218120420,2222352429,2219367478,2150975323,2188053750,2193934006,2185935451,2150997824,741,1,16,19380
1382484476,5808,70.5400009155273400,25.6639995574951170,35.3925018310546900,248.2066040039062500,-13.9924097061157230,25.6142005920410160,27.0959300994873050,71,123,90,83,56,15088,2221747638,2225937746,2222285805,2151223378,2191013760,2196936228,2187955291,2151203154,1099,1,16,10074
1382484627,5810,68.1999969482421900,25.9929008483886720,35.4003982543945300,247.0395965576172000,-24.8387794494628900,25.9540691375732420,27.0142192840576170,69,123,88,85,56,15080,2233214738,2236323044,2230413074,2152029001,2201239360,2206366912,2193631314,2151841846,1627,1,17,58185
1382484726,5811,66.7600021362304700,26.4456005096435550,35.4077987670898440,245.2272033691406200,-38.3313903808593750,26.3779392242431640,26.9282798767089840,69,125,91,84,57,15079,2238298349,2241024557,2234176630,2152270189,2205945225,2210776886,2196397696,2152130861,1641,1,16,57477
1382484910,5812,63.9399986267089840,26.6543998718261720,35.4123001098632800,243.2274932861328000,-46.9379005432128900,26.6489601135253900,26.9101696014404300,65,124,90,83,56,15067,2252209097,2253590619,2245945408,2153575597,2216154048,2220644809,2203397421,2152924480,3102,0,16,5779
1382484976,5806,62.2099990844726560,26.8649005889892580,35.4068984985351560,241.8885955810547000,-53.1871986389160160,26.8460807800292970,26.8925094604492200,63,125,93,87,54,15074,2257099291,2257715602,2249136694,2154069467,2221099026,2225026779,2206088448,2153273892,3108,0,16,51949
1382485075,5809,60.5699996948242200,27.1917991638183600,35.4033012390136700,239.2362060546875000,-62.9032592773437500,27.1531200408935550,26.8906497955322270,66,121,91,86,60,15065,2265418313,2265790939,2256571154,2154900013,2228147437,2232130642,2211159021,2153855625,282,1,16,38061
1382485193,5808,58.1899986267089840,27.4515991210937500,35.3996009826660160,235.4580993652343800,-71.9321670532226600,27.4390792846679700,26.9480991363525400,63,122,91,84,53,15056,2275525046,2275376201,2265068982,2156274614,2238929499,2242149257,2217740992,2154673216,729,0,16,48181
1382485314,5810,57.0099983215332000,27.6506004333496100,35.3423004150390600,228.0644989013672000,-78.2855224609375000,27.6406707763671880,27.2061805725097660,63,124,90,84,55,15074,2279879643,2279670253,2269550198,2156963181,2243051940,2246101257,2220760448,2155168265,3508,0,16,21103
1382485781,5807,53.8699989318847660,27.6975994110107420,35.3228988647460940,223.1743927001953000,-80.0419235229492200,27.6964607238769530,27.4130897521972660,55,116,88,82,61,15096,2264842642,2264225856,2253711469,2156813851,2260250934,2254078509,2218765586,2154696649,2251,0,16,46033
1382485836,5806,51.9300003051757800,27.6980991363525400,35.3224983215332000,223.1755065917968800,-80.1164627075195300,27.6988296508789060,27.4123992919921880,56,117,87,83,56,15094,2306665536,2309702427,2299124672,2162526290,2308791561,2301455579,2250710948,2158422921,2062,1,16,41775
1382485891,5816,49.6500015258789060,27.6986007690429700,35.3227005004882800,223.1519012451172000,-80.1373062133789000,27.6994895935058600,27.4130306243896500,56,118,89,82,57,15094,2289391478,2290219081,2279539044,2161406134,2299312091,2289147382,2240250267,2157218441,1800,0,16,55789
1382485946,5806,47.0900001525878900,27.6993999481201170,35.3224983215332000,223.0960998535156200,-80.1295471191406200,27.6992492675781250,27.4158401489257800,55,115,88,84,55,15090,2281838592,2280986093,2270887350,2162477257,2296453302,2283430290,2234642221,2157102866,1658,0,17,15106
1382486001,5808,44.2500000000000000,27.6998004913330080,35.3228988647460940,223.2214965820312500,-80.1600265502929700,27.7002201080322270,27.4095592498779300,55,115,89,82,54,14804,2308118528,2310105472,2301038518,2168241344,2325135305,2310944365,2253121316,2159531282,1633,1,17,58589
1382486086,5808,39.0400009155273440,27.7022991180419920,35.3223991394043000,223.3482055664062500,-80.2105789184570300,27.7018203735351560,27.4030208587646500,56,113,89,83,55,15089,2276916278,2273940022,2265385161,2167542994,2304524982,2285976155,2233883300,2157963053,1448,0,16,56997
1382486141,5807,34.9700012207031250,27.7059993743896500,35.3222999572753900,223.4636993408203000,-80.4902801513671900,27.7107105255126950,27.3940696716308600,55,113,89,81,57,15093,2408342921,2417002413,2415492964,2202880923,2456840758,2433576850,2334206966,2173422637,1228,0,16,36992
1382486196,5808,30.8700008392334000,27.7080993652343750,35.3223991394043000,223.5079956054687500,-80.6773376464843800,27.7166500091552730,27.3897209167480470,53,113,88,82,57,15086,2387714624,2391584320,2388666953,2208543716,2456905664,2429322029,2329931876,2174732562,1157,1,16,48878
1382486251,5809,26.7900009155273440,27.7126007080078120,35.3224983215332000,223.5045013427734400,-80.7973327636718800,27.7204608917236330,27.3884601593017580,53,113,89,83,55,15088,2350847424,2349897389,2345142299,2205660909,2419755776,2389627648,2301505270,2171999149,1128,1,16,40460
1382486306,5807,22.8299999237060550,27.7152996063232420,35.3227996826171900,223.5231933593750000,-80.7751007080078100,27.7197608947753900,27.3878402709960940,52,114,89,82,56,15087,2327151698,2322950473,2317602011,2206762368,2386343597,2353754057,2275616530,2169599981,1173,1,16,11348
